Precipitable_Water
0.71 0.69 0.70 0.70 0.71 0.68 0.64 0.60 0.56 0.53 0.52 0.50 0.48 0.44 0.43 0.40 0.35 0.31 0.21 0.27 0.34 0.38 0.37 0.33 0.72 0.97 1.18 1.17 1.36 1.36 0.91 0.74 0.70 0.58 0.57 0.72 0.77 0.94 1.06 0.92 1.01 1.05 0.91 1.07 1.23
0.67 0.65 0.66 0.68 0.69 0.69 0.65 0.59 0.54 0.51 0.51 0.51 0.48 0.45 0.43 0.41 0.25 0.18 0.21 0.29 0.36 0.37 0.28 0.41 0.77 0.82 0.75 0.76 0.92 0.89 0.71 0.69 0.59 0.56 0.57 0.61 0.66 0.81 0.89 0.93 0.92 0.92 1.06 1.19 1.25
0.60 0.58 0.60 0.63 0.66 0.70 0.67 0.59 0.53 0.49 0.50 0.50 0.49 0.46 0.44 0.40 0.18 0.21 0.36 0.30 0.34 0.35 0.29 0.48 0.72 0.65 0.58 0.62 0.63 0.60 0.61 0.65 0.54 0.52 0.48 0.46 0.51 0.81 0.89 0.80 0.81 0.73 0.88 1.08 1.17
0.55 0.53 0.55 0.58 0.62 0.68 0.70 0.59 0.54 0.50 0.50 0.50 0.48 0.46 0.41 0.36 0.28 0.47 0.50 0.33 0.33 0.31 0.26 0.36 0.60 0.52 0.45 0.45 0.52 0.47 0.54 0.52 0.46 0.43 0.38 0.36 0.44 0.63 0.72 0.77 0.87 0.81 0.85 0.99 1.05
0.53 0.52 0.52 0.54 0.57 0.63 0.69 0.59 0.54 0.54 0.46 0.49 0.49 0.45 0.32 0.30 0.31 0.63 0.41 0.39 0.31 0.26 0.27 0.36 0.47 0.45 0.37 0.42 0.44 0.43 0.45 0.47 0.47 0.40 0.37 0.36 0.34 0.38 0.57 0.82 0.94 0.91 0.91 0.93 1.00
0.52 0.50 0.50 0.52 0.53 0.57 0.68 0.58 0.54 0.55 0.44 0.46 0.47 0.45 0.33 0.27 0.63 0.56 0.38 0.32 0.24 0.22 0.25 0.39 0.41 0.40 0.34 0.37 0.36 0.43 0.41 0.43 0.41 0.40 0.39 0.34 0.37 0.46 0.68 0.83 0.80 0.83 0.85 0.95 0.96
0.49 0.48 0.48 0.49 0.51 0.54 0.65 0.58 0.54 0.54 0.44 0.44 0.44 0.46 0.40 0.35 0.56 0.48 0.35 0.25 0.25 0.24 0.33 0.46 0.44 0.37 0.38 0.39 0.48 0.46 0.40 0.42 0.39 0.39 0.37 0.38 0.35 0.39 0.65 0.75 0.74 0.84 0.89 0.91 0.98
0.47 0.46 0.45 0.47 0.49 0.52 0.62 0.56 0.54 0.51 0.47 0.44 0.46 0.45 0.38 0.60 0.55 0.47 0.39 0.34 0.36 0.41 0.46 0.46 0.44 0.38 0.38 0.46 0.46 0.41 0.43 0.36 0.38 0.37 0.36 0.35 0.30 0.35 0.73 0.72 0.75 0.83 0.89 0.95 1.00
0.46 0.44 0.43 0.44 0.48 0.52 0.59 0.55 0.54 0.53 0.50 0.49 0.52 0.51 0.42 0.57 0.42 0.47 0.53 0.43 0.42 0.43 0.42 0.44 0.40 0.34 0.42 0.40 0.36 0.37 0.30 0.34 0.34 0.36 0.34 0.34 0.32 0.39 0.44 0.65 0.71 0.82 0.91 0.98 1.07
0.44 0.42 0.41 0.41 0.46 0.52 0.61 0.68 0.70 0.59 0.58 0.52 0.60 0.45 0.52 0.41 0.42 0.53 0.57 0.54 0.45 0.44 0.42 0.42 0.42 0.41 0.40 0.36 0.25 0.27 0.28 0.33 0.30 0.34 0.35 0.33 0.34 0.39 0.45 0.50 0.71 0.84 0.94 1.01 1.06
0.42 0.41 0.39 0.39 0.43 0.54 0.64 0.63 0.47 0.47 0.40 0.26 0.42 0.44 0.45 0.45 0.48 0.47 0.51 0.46 0.41 0.39 0.36 0.46 0.38 0.32 0.33 0.34 0.34 0.32 0.29 0.29 0.33 0.35 0.34 0.34 0.38 0.44 0.50 0.59 0.67 0.81 0.95 0.98 1.06
0.41 0.39 0.37 0.36 0.43 0.63 0.67 0.47 0.41 0.44 0.32 0.39 0.40 0.40 0.44 0.45 0.32 0.38 0.44 0.31 0.36 0.32 0.38 0.36 0.32 0.39 0.38 0.33 0.32 0.31 0.28 0.30 0.34 0.36 0.32 0.32 0.36 0.50 0.55 0.63 0.67 0.72 0.81 0.96 1.12
0.39 0.38 0.37 0.34 0.52 0.72 0.60 0.52 0.61 0.52 0.31 0.32 0.35 0.34 0.36 0.37 0.28 0.31 0.35 0.34 0.32 0.30 0.32 0.30 0.31 0.36 0.34 0.30 0.29 0.31 0.28 0.31 0.32 0.33 0.35 0.33 0.35 0.48 0.64 0.72 0.78 0.89 0.99 1.08 1.16
0.37 0.37 0.37 0.32 0.58 0.62 0.58 0.66 0.63 0.52 0.21 0.19 0.28 0.31 0.33 0.32 0.24 0.32 0.36 0.35 0.32 0.29 0.30 0.30 0.34 0.31 0.29 0.30 0.32 0.28 0.36 0.34 0.33 0.30 0.26 0.34 0.27 0.45 0.57 0.69 0.79 0.93 1.00 1.08 1.17
0.37 0.37 0.36 0.37 0.43 0.53 0.65 0.68 0.61 0.44 0.11 0.34 0.32 0.36 0.33 0.27 0.27 0.28 0.36 0.35 0.29 0.29 0.29 0.29 0.30 0.30 0.30 0.30 0.34 0.31 0.36 0.33 0.34 0.33 0.29 0.29 0.29 0.41 0.59 0.59 0.74 0.92 1.00 1.10 1.18
0.35 0.35 0.36 0.34 0.33 0.52 0.64 0.65 0.52 0.21 0.12 0.28 0.34 0.30 0.26 0.28 0.27 0.31 0.31 0.35 0.36 0.29 0.29 0.31 0.36 0.36 0.34 0.34 0.33 0.34 0.32 0.35 0.39 0.37 0.28 0.37 0.37 0.41 0.51 0.55 0.69 0.85 0.96 1.06 1.09
0.34 0.32 0.35 0.34 0.21 0.59 0.60 0.54 0.25 0.15 0.33 0.26 0.28 0.32 0.28 0.24 0.24 0.26 0.25 0.24 0.24 0.23 0.24 0.32 0.34 0.38 0.37 0.33 0.35 0.33 0.31 0.25 0.27 0.31 0.32 0.48 0.42 0.47 0.57 0.67 0.72 0.80 0.89 0.94 1.03
0.33 0.31 0.30 0.29 0.28 0.49 0.59 0.39 0.18 0.28 0.35 0.37 0.33 0.32 0.29 0.25 0.24 0.24 0.25 0.23 0.26 0.27 0.27 0.25 0.26 0.34 0.38 0.34 0.33 0.34 0.34 0.24 0.19 0.25 0.32 0.46 0.40 0.48 0.64 0.77 0.85 0.88 0.92 1.00 1.04
0.34 0.27 0.26 0.23 0.29 0.47 0.46 0.26 0.21 0.35 0.44 0.41 0.36 0.29 0.27 0.25 0.25 0.25 0.26 0.26 0.29 0.31 0.25 0.29 0.30 0.35 0.37 0.39 0.40 0.37 0.31 0.34 0.26 0.31 0.29 0.40 0.53 0.63 0.74 0.77 0.80 0.87 0.96 1.02 1.08
0.28 0.26 0.24 0.22 0.41 0.42 0.32 0.27 0.29 0.42 0.49 0.45 0.33 0.29 0.25 0.29 0.25 0.26 0.27 0.30 0.32 0.34 0.36 0.35 0.31 0.39 0.40 0.42 0.43 0.39 0.38 0.26 0.28 0.19 0.17 0.37 0.43 0.45 0.59 0.67 0.76 0.81 0.89 0.98 1.01
0.30 0.20 0.39 0.30 0.48 0.38 0.21 0.25 0.30 0.39 0.45 0.44 0.40 0.38 0.34 0.34 0.31 0.31 0.28 0.31 0.38 0.39 0.40 0.38 0.35 0.37 0.41 0.37 0.37 0.37 0.33 0.35 0.35 0.31 0.24 0.29 0.40 0.61 0.62 0.66 0.70 0.77 0.82 0.85 0.94
0.28 0.16 0.48 0.42 0.31 0.35 0.23 0.25 0.30 0.31 0.39 0.42 0.47 0.43 0.40 0.39 0.38 0.37 0.29 0.36 0.43 0.42 0.38 0.42 0.38 0.32 0.34 0.43 0.44 0.43 0.37 0.38 0.33 0.31 0.35 0.34 0.36 0.61 0.60 0.66 0.69 0.72 0.77 0.85 0.89
0.21 0.25 0.47 0.50 0.30 0.27 0.27 0.24 0.26 0.26 0.33 0.38 0.43 0.42 0.45 0.39 0.36 0.42 0.43 0.50 0.50 0.45 0.43 0.44 0.37 0.31 0.31 0.31 0.36 0.36 0.45 0.46 0.45 0.42 0.34 0.31 0.34 0.58 0.61 0.63 0.67 0.68 0.76 0.81 0.83
0.25 0.20 0.45 0.45 0.46 0.37 0.29 0.24 0.24 0.29 0.35 0.37 0.42 0.44 0.41 0.38 0.42 0.42 0.44 0.51 0.53 0.50 0.52 0.50 0.42 0.34 0.27 0.31 0.30 0.30 0.37 0.41 0.43 0.37 0.35 0.34 0.37 0.45 0.52 0.54 0.61 0.66 0.71 0.73 0.77
0.28 0.26 0.58 0.41 0.41 0.43 0.40 0.30 0.26 0.27 0.37 0.41 0.38 0.37 0.36 0.34 0.38 0.39 0.45 0.47 0.52 0.53 0.49 0.45 0.36 0.37 0.36 0.35 0.33 0.28 0.35 0.40 0.37 0.37 0.32 0.34 0.33 0.36 0.42 0.54 0.62 0.68 0.70 0.71 0.74
0.26 0.36 0.48 0.48 0.52 0.42 0.38 0.34 0.30 0.37 0.35 0.35 0.34 0.36 0.39 0.34 0.38 0.39 0.45 0.46 0.44 0.49 0.46 0.48 0.37 0.37 0.30 0.31 0.30 0.24 0.30 0.35 0.41 0.40 0.37 0.36 0.35 0.52 0.58 0.63 0.63 0.65 0.67 0.69 0.74
0.52 0.53 0.42 0.44 0.48 0.42 0.40 0.39 0.39 0.42 0.40 0.45 0.40 0.39 0.38 0.44 0.48 0.50 0.51 0.51 0.51 0.46 0.45 0.44 0.40 0.33 0.24 0.33 0.29 0.22 0.25 0.28 0.31 0.35 0.37 0.32 0.40 0.57 0.54 0.56 0.61 0.67 0.69 0.70 0.72
Wind_Speed
6 6 7 8 7 6 6 5 3 1 1 2 3 4 4 3 4 4 4 4 4 4 4 6 8 7 4 2 1 4 6 5 4 7 7 8 4 5 5 9 6 8 10 14 15
5 6 6 7 7 6 6 5 4 3 2 3 3 4 4 3 4 4 5 6 6 6 5 6 6 6 3 1 0 1 2 4 5 6 5 5 7 6 5 8 8 11 11 13 15
5 5 6 6 6 6 5 5 4 4 3 3 4 4 4 4 4 4 5 8 7 6 4 4 4 2 1 3 2 2 1 1 3 4 4 3 5 4 8 2 8 10 11 12 13
5 5 5 5 6 6 4 4 4 3 3 4 5 5 5 6 6 4 4 8 8 6 5 3 3 1 2 3 3 3 4 3 3 5 4 2 0 5 1 2 8 10 12 13 12
5 5 5 5 5 5 4 3 2 3 3 4 5 6 6 6 4 4 4 7 7 6 5 3 2 1 2 4 5 1 3 4 4 6 3 5 4 3 4 8 9 10 10 11 10
6 5 5 5 5 5 3 2 1 2 3 4 6 7 5 4 4 4 5 6 6 7 5 4 2 3 4 3 2 5 5 4 2 2 2 4 3 5 6 9 10 10 10 9 8
7 6 6 6 5 5 4 2 1 1 3 5 6 6 5 3 3 4 5 6 6 6 4 2 2 2 3 3 1 5 2 3 3 1 1 6 4 4 7 8 9 9 9 7 7
8 7 7 7 6 6 5 3 3 3 4 5 6 4 3 2 5 4 5 5 5 5 3 3 3 1 1 2 5 5 3 2 3 2 2 2 1 2 7 6 8 8 8 7 6
9 9 8 8 7 7 5 4 5 4 5 6 5 3 3 3 4 6 6 4 4 2 2 3 1 1 1 1 4 5 3 4 1 2 3 3 3 1 5 6 6 7 7 7 6
10 10 9 9 8 8 6 6 6 5 5 6 6 4 4 5 6 6 5 5 3 1 1 1 1 1 2 1 3 5 6 2 5 1 1 4 4 2 4 5 5 6 7 7 7
12 11 11 10 9 8 7 7 6 6 8 9 7 6 3 4 7 6 6 4 4 2 2 1 1 3 5 4 5 5 4 1 5 3 1 5 3 4 4 5 4 3 3 7 7
13 12 12 11 11 9 8 8 8 8 9 12 12 10 9 9 6 6 6 4 4 4 1 2 4 6 3 3 4 6 4 5 2 3 1 4 5 5 4 3 4 5 6 5 5
14 14 13 12 11 10 10 10 9 8 9 11 12 11 10 10 8 9 8 6 5 4 4 3 5 4 4 6 5 4 2 3 4 3 2 1 4 6 4 4 4 4 4 3 4
16 15 13 13 12 10 11 9 8 8 6 10 11 11 11 9 8 10 10 6 5 6 5 6 7 4 4 3 0 1 3 3 4 3 6 4 6 9 8 5 6 4 2 2 1
17 16 15 14 14 13 12 11 9 8 6 8 10 9 12 11 6 8 11 8 8 7 4 5 3 4 2 3 2 5 4 5 6 6 6 7 3 10 10 8 9 6 4 3 2
19 18 17 15 16 16 13 12 10 7 10 9 10 10 10 12 8 8 10 8 7 8 7 8 6 5 3 3 3 3 3 4 3 2 2 6 6 9 13 13 10 8 6 4 3
21 21 20 19 17 16 14 12 10 11 9 11 12 10 11 12 10 11 10 9 7 4 5 6 8 9 7 4 4 2 3 3 3 3 7 6 4 7 14 15 12 9 8 6 5
23 22 21 22 21 19 15 14 13 12 12 9 12 11 11 13 12 14 10 8 10 7 6 6 10 5 7 5 4 3 2 3 4 5 7 7 6 9 7 13 11 11 9 7 6
23 21 22 22 23 22 18 16 17 15 10 8 13 14 12 13 12 13 13 11 10 11 8 4 5 1 3 5 3 6 6 5 3 6 5 6 3 4 6 8 8 9 9 9 9
21 20 22 24 24 22 20 21 19 17 10 8 11 16 14 14 13 15 16 14 12 13 12 10 6 5 4 3 5 5 5 6 6 5 7 7 8 9 9 8 10 9 10 11 10
20 19 20 24 24 22 22 22 20 20 14 13 13 11 12 9 13 16 19 17 15 11 12 11 8 10 7 8 8 7 7 4 3 4 5 6 9 9 11 12 12 12 11 10 10
20 19 20 25 23 24 24 22 19 21 19 18 16 16 14 11 10 9 15 14 16 13 11 10 9 9 11 12 11 9 9 7 6 9 7 8 11 11 11 11 12 12 12 13 13
21 22 23 25 23 23 23 22 23 23 23 20 21 17 15 15 11 9 9 11 11 13 14 14 10 9 10 10 9 7 7 8 8 9 10 9 13 11 8 9 12 13 14 15 16
21 21 24 24 25 23 23 24 24 23 25 23 20 18 15 16 16 14 13 11 11 11 10 10 11 11 12 12 11 12 12 12 10 10 11 13 13 14 14 13 15 14 16 17 18
23 24 23 22 23 23 23 23 22 21 22 22 19 18 18 19 17 17 16 16 14 15 13 12 12 12 13 14 14 15 15 14 12 13 11 15 15 18 20 18 18 17 17 18 19
23 23 24 23 23 21 21 21 24 24 23 24 22 22 19 17 18 19 19 18 19 18 15 15 15 13 14 14 14 15 16 16 16 16 17 17 19 19 16 16 18 18 19 20 20
24 24 24 25 21 20 19 19 20 21 21 22 25 20 19 20 18 17 17 18 17 17 16 15 14 13 14 13 11 13 13 16 19 22 21 23 21 18 17 17 18 18 19 20 21
Wind_Direction
12 12 13 17 22 28 29 32 40 52 153 169 173 177 176 183 190 178 182 164 145 146 121 120 126 129 129 124 94 69 52 30 16 47 41 77 78 125 61 80 70 38 86 107 112
4 5 10 17 23 26 31 37 44 52 97 146 151 158 162 164 171 191 182 170 158 143 129 134 132 115 107 62 343 183 26 23 45 52 34 37 58 121 83 107 54 74 95 110 115
354 358 5 10 16 20 26 35 43 52 84 132 140 138 141 143 144 164 163 176 164 155 150 152 173 120 73 15 16 328 247 5 15 23 9 352 32 112 121 82 108 110 118 116 121
344 348 354 1 7 11 15 29 42 50 89 127 139 132 128 129 127 124 147 170 173 167 159 149 155 149 329 345 348 23 23 29 357 10 11 35 106 128 130 122 130 122 123 125 129
330 334 339 345 353 359 2 15 40 54 94 130 141 136 132 124 127 115 121 156 172 172 172 164 183 277 304 306 340 83 355 340 351 4 69 63 112 100 125 132 135 126 126 135 129
316 320 321 325 332 340 340 339 30 66 109 133 145 143 136 131 122 123 124 143 160 166 174 178 211 289 291 308 340 306 310 312 359 11 75 68 87 94 120 129 140 147 142 144 143
305 307 308 309 312 318 313 285 226 158 140 144 148 149 145 160 137 129 131 144 153 161 153 188 303 320 331 336 0 317 314 316 306 336 91 91 70 100 140 141 145 156 158 152 161
298 298 299 298 298 301 291 255 219 195 168 161 161 162 180 159 154 141 136 135 148 168 195 276 295 314 208 311 335 326 307 235 263 136 187 97 153 59 152 144 154 167 174 175 170
292 293 292 291 289 290 273 238 210 197 187 177 176 176 201 163 170 163 155 137 140 184 230 278 324 211 327 14 359 9 324 203 251 188 113 146 175 112 116 178 174 179 184 185 183
288 288 287 285 281 277 252 225 208 207 202 195 208 209 212 209 188 177 183 195 194 202 317 195 79 6 317 351 298 325 20 73 161 212 67 131 168 145 147 120 183 188 196 199 195
284 284 283 281 278 261 234 218 227 223 217 209 200 217 181 189 177 200 202 204 216 203 203 280 7 284 264 245 255 281 328 86 250 256 30 175 197 183 164 122 94 135 206 201 203
281 280 279 277 273 244 220 223 230 233 242 228 228 230 238 213 200 213 198 199 193 214 196 322 269 265 281 262 267 300 295 298 225 279 312 195 222 215 187 190 141 109 124 161 181
277 277 276 273 255 220 231 228 243 249 235 240 225 221 218 198 218 214 196 202 207 221 239 230 271 296 276 314 307 317 310 256 244 285 283 191 253 204 220 165 137 121 99 123 160
274 273 272 271 225 239 226 239 249 238 234 238 218 223 210 211 236 217 205 193 210 228 267 261 274 253 323 344 45 286 301 299 287 273 249 261 255 226 215 194 167 159 139 141 146
271 268 264 250 237 227 233 245 249 221 231 216 205 215 204 202 213 210 200 209 231 247 297 266 299 263 319 280 307 252 276 304 273 282 282 245 239 243 215 211 197 202 188 188 211
268 264 259 238 235 230 240 242 221 218 234 212 195 198 192 211 219 200 202 224 231 255 256 252 271 258 257 278 307 296 295 316 318 260 269 243 250 255 216 212 218 229 219 209 223
266 260 251 239 227 226 236 220 216 214 228 213 205 198 206 209 215 204 208 223 223 243 263 287 273 274 257 288 297 20 353 292 315 320 235 294 265 251 234 217 220 217 217 227 236
266 258 242 235 229 226 223 215 216 216 220 231 211 208 214 212 225 206 208 227 237 225 260 256 300 269 212 218 211 284 256 235 253 271 271 276 276 277 238 205 213 219 226 239 251
263 248 240 232 224 219 217 217 213 212 225 252 220 209 228 223 216 210 216 223 232 222 227 240 317 324 203 210 242 288 298 257 240 277 283 266 268 283 196 206 219 226 229 238 250
254 246 237 225 214 214 219 223 218 218 236 248 223 216 216 224 213 219 221 231 246 234 231 236 239 262 242 260 279 277 274 283 281 255 261 265 255 250 226 223 220 231 231 248 262
244 238 228 215 211 219 222 225 224 226 239 239 222 224 219 223 231 244 233 242 241 238 224 221 235 252 259 268 267 291 283 288 248 238 231 261 271 234 228 230 232 237 237 248 262
238 229 220 209 217 224 226 223 225 229 234 238 228 228 230 232 243 264 222 241 242 227 231 239 233 247 258 271 266 272 249 247 251 258 257 248 264 259 258 237 235 242 251 259 266
235 226 220 216 223 227 231 231 228 232 234 233 231 231 232 230 232 239 233 253 224 229 230 235 250 257 278 270 278 272 287 268 264 270 261 252 266 261 241 243 243 247 256 265 271
228 224 223 223 224 223 227 231 231 228 237 231 232 231 233 235 230 232 228 234 233 228 228 237 249 240 242 250 256 265 275 281 273 271 265 257 258 253 250 249 256 257 266 274 279
222 222 222 225 225 231 228 230 231 230 230 225 234 227 229 234 234 228 232 232 239 236 244 249 252 257 259 262 264 258 266 274 272 268 265 269 261 261 259 254 259 262 268 273 277
223 222 225 229 229 231 226 228 225 232 232 231 227 228 229 230 232 231 228 239 239 246 245 253 254 262 271 273 273 265 267 272 272 272 273 272 276 271 260 259 262 267 270 275 280
226 225 222 224 228 223 222 228 229 233 230 231 228 226 223 228 228 231 228 232 238 239 244 248 251 263 262 272 274 275 264 272 274 272 268 275 269 263 265 263 264 268 274 277 281